This is the latest recevied weather packets stored in our database for station/object KF4PPJ. If no packets are shown the sender has not sent any weather packets the latest 10 day(s).
| Time | Temp. | Humidity | Pressure | Rain* | Wind** | Luminosity | Snow |
|---|---|---|---|---|---|---|---|
| 1778004964 | 13.89° C | 80% | 1019.2 hPa | 0 mm | - | 132 W/m² | - |
| 1778004661 | 13.89° C | 81% | 1019.4 hPa | 0 mm | - | 140 W/m² | - |
| 1778004357 | 13.89° C | 80% | 1019.5 hPa | 0 mm | - | 147 W/m² | - |
| 1778004055 | 13.89° C | 80% | 1019.2 hPa | 0 mm | - | 132 W/m² | - |
| 1778003750 | 13.89° C | 81% | 1019.2 hPa | 0 mm | - | 124 W/m² | - |
| 1778003447 | 13.89° C | 80% | 1019.5 hPa | 0 mm | - | 123 W/m² | - |
| 1778003144 | 13.89° C | 81% | 1019.2 hPa | 0 mm | - | 105 W/m² | - |
| 1778002839 | 13.89° C | 81% | 1019.3 hPa | 0 mm | - | 100 W/m² | - |
| 1778002537 | 13.89° C | 81% | 1019.2 hPa | 0 mm | - | 106 W/m² | - |
| 1778002233 | 13.89° C | 81% | 1019.2 hPa | 0 mm | - | 103 W/m² | - |
| 1778001931 | 13.89° C | 81% | 1019.1 hPa | 0 mm | - | 91 W/m² | - |
| 1778001627 | 13.89° C | 81% | 1019.3 hPa | 0 mm | - | 82 W/m² | - |
| 1778001322 | 13.89° C | 81% | 1019.2 hPa | 0 mm | - | 79 W/m² | - |
| 1778001020 | 13.89° C | 82% | 1019.2 hPa | 0 mm | - | 78 W/m² | - |
| 1778000716 | 13.89° C | 82% | 1019 hPa | 0 mm | - | 76 W/m² | - |
| 1778000412 | 13.33° C | 82% | 1019 hPa | 0 mm | - | 73 W/m² | - |
| 1778000108 | 13.33° C | 82% | 1019 hPa | 0 mm | - | 71 W/m² | - |
| 1777999804 | 13.33° C | 82% | 1019.1 hPa | 0 mm | - | 70 W/m² | - |
| 1777999500 | 13.33° C | 82% | 1019.2 hPa | 0 mm | - | 72 W/m² | - |
| 1777999198 | 13.33° C | 82% | 1018.9 hPa | 0 mm | - | 66 W/m² | - |
| 1777998896 | 13.33° C | 82% | 1019.1 hPa | 0 mm | - | 60 W/m² | - |
| 1777998596 | 13.33° C | 82% | 1019 hPa | 0 mm | - | 61 W/m² | - |
| 1777998291 | 13.33° C | 82% | 1019 hPa | 0 mm | - | 58 W/m² | - |
| 1777997988 | 13.33° C | 82% | 1018.9 hPa | 0 mm | - | 55 W/m² | - |
| 1777997684 | 13.33° C | 82% | 1018.8 hPa | 0 mm | - | 50 W/m² | - |
* Rain latest hour (hover to see other rain measurements)
** Current wind speed in m/s (hover to see current wind gust speed)